sat.trackr.live / text

‹ back to catalog

GONETS-M 8

NORAD 40061 · 2014-036A

PAYLOAD ACTIVE UNKNOWN

§ Identity

Operator
Country
CIS
Launch date
2014-07-03
Launch site
PLMSC
Launch vehicle
Mass (kg)
RCS (m²)
1.72

External: N2YO · Heavens-Above · Gunter

§ Orbital elements

Epoch: 2026-05-25T04:30:07.103808Z

Period
115.85 min
Inclination
82.5103°
Eccentricity
0.0029617
Mean motion
12.42984442 rev/d
Perigee alt
1,470.7 km
Apogee alt
1,517.3 km
Semi-major
7,872.1 km
B*
-4.4389e-6
RAAN
321.8728°
Arg perigee
197.5822°
Mean anomaly
162.4235°
Rev number
53,959

§ Raw data

GONETS-M 81 40061U 14036A   26145.18758222  .00000009  00000+0 -44389-5 0  99902 40061  82.5103 321.8728 0029617 197.5822 162.4235 12.42984442539596

JSON: /api/v1/satellites/40061 · /tle

For live sub-satellite position, see the globe view (requires WebGL).

§ Visibility from observer

Set your observer location to see the next 7 days of passes ≥ 10°. The values pass through the URL so the page stays shareable.

No JS? Fill the form by hand. The geolocation button needs JavaScript.